Darstellungsparameter: Aktuell verwendete Einstellungen:
Skalierung der Graphiken ... ?
xyx+y,   Skalierungsfaktor:      Skalierung: Modus: x, Faktor: 1
Darstellungszeitraum ... ?
Vom - - bis: - -   Zeitraum: 01.04.2019 - 03.04.2019
Min/Max/Avg-Anzeige ... ?
Zeige MMA aktuell
Zeige MMA Monat
Zeige MMA alles
Zeige --A aktuell
Zeige --A Monat
Zeige --A alles
Keine MMA-Anzeige
MMA:
Average (ber die Originaldaten)
MMA-Basis: 01.04.2019 - 03.04.2019
Quicknavigation für Darstellung... ?
Tage:      1T, 2T, 3T, 5T -1T -2T -3T -5T +1T +2T +3T +5T
Wochen: 1W, 2W, 3W -1W -2W -3W +1W +2W +3W
Monate: 1M, 3M, 6M -1M -3M -6M +1M +3M +6M
Jahre:    1J, 3J, 5J, 10J -1J -3J -5J -10J +1J +3J +5J +10J
Nutze für die Darstellung ... ?
Originaldaten oder Mittelwerte auf ...
Stundenbasis Tagesbasis Wochenbasis
Monatsbasis Jahresbasis      Datenbasis: Original-Daten
Darstellen als:
Statistik (Auto) Statistik J:M      Darstellung:
Zur Graphik,    zurück zur Übersicht aller Sensoren.
 
Tabellarische Datenbersicht: ?
 
Sensor: Nr:Datum:Temp:Abs-Feuchte:Windchill:Wind:
Aussen-T/F 1 01-04-2019 00:00:00 6.7 C 6.76 g/m*3 6.7 C 0 km/h
2 01-04-2019 00:05:00 6.6 C 6.72 g/m*3 6.6 C 0 km/h
3 01-04-2019 00:10:00 6.6 C 6.72 g/m*3 6.6 C 0 km/h
4 01-04-2019 00:15:00 6.5 C 6.67 g/m*3 6.5 C 0 km/h
5 01-04-2019 00:20:00 6.4 C 6.63 g/m*3 6.4 C 0 km/h
6 01-04-2019 00:25:00 6.4 C 6.63 g/m*3 6.4 C 0 km/h
7 01-04-2019 00:30:00 6.3 C 6.59 g/m*3 6.3 C 0 km/h
8 01-04-2019 00:35:00 6.3 C 6.59 g/m*3 6.3 C 0 km/h
9 01-04-2019 00:40:00 6.2 C 6.55 g/m*3 6.2 C 0 km/h
10 01-04-2019 00:45:00 6.2 C 6.55 g/m*3 6.2 C 0 km/h
11 01-04-2019 00:50:00 6.1 C 6.5 g/m*3 6.1 C 0 km/h
12 01-04-2019 00:55:00 6.1 C 6.5 g/m*3 6.1 C 0 km/h
13 01-04-2019 01:00:00 6 C 6.46 g/m*3 6 C 0 km/h
14 01-04-2019 01:05:00 6 C 6.46 g/m*3 6 C 0 km/h
15 01-04-2019 01:10:00 5.9 C 6.42 g/m*3 5.9 C 0 km/h
16 01-04-2019 01:15:00 5.9 C 6.42 g/m*3 5.9 C 0 km/h
17 01-04-2019 01:20:00 5.8 C 6.38 g/m*3 5.8 C 0 km/h
18 01-04-2019 01:25:00 5.8 C 6.38 g/m*3 5.8 C 0 km/h
19 01-04-2019 01:30:00 5.7 C 6.33 g/m*3 5.7 C 0 km/h
20 01-04-2019 01:35:00 5.6 C 6.29 g/m*3 5.6 C 0 km/h
21 01-04-2019 01:40:00 5.6 C 6.36 g/m*3 5.6 C 0 km/h
22 01-04-2019 01:45:00 5.6 C 6.36 g/m*3 5.6 C 0 km/h
23 01-04-2019 01:50:00 5.5 C 6.32 g/m*3 5.5 C 0 km/h
24 01-04-2019 01:55:00 5.5 C 6.32 g/m*3 5.5 C 3.2 km/h
25 01-04-2019 02:00:00 5.5 C 6.32 g/m*3 5.5 C 3.2 km/h
Sensor: Nr:Datum:Temp:Abs-Feuchte:Windchill:Wind:
Aussen-T/F 26 01-04-2019 02:05:00 5.4 C 6.28 g/m*3 5.4 C 1.6 km/h
27 01-04-2019 02:10:00 5.4 C 6.28 g/m*3 5.4 C 3.2 km/h
28 01-04-2019 02:15:00 5.4 C 6.28 g/m*3 5.4 C 0 km/h
29 01-04-2019 02:20:00 5.3 C 6.24 g/m*3 5.3 C 0 km/h
30 01-04-2019 02:25:00 5.3 C 6.24 g/m*3 5.3 C 1.6 km/h
31 01-04-2019 02:30:00 5.3 C 6.24 g/m*3 5.3 C 1.6 km/h
32 01-04-2019 02:35:00 5.2 C 6.2 g/m*3 5.2 C 3.2 km/h
33 01-04-2019 02:40:00 5.2 C 6.2 g/m*3 5.2 C 1.6 km/h
34 01-04-2019 02:45:00 5.1 C 6.16 g/m*3 5.1 C 3.2 km/h
35 01-04-2019 02:50:00 5 C 6.12 g/m*3 5 C 0 km/h
36 01-04-2019 02:55:00 4.9 C 6.08 g/m*3 4.9 C 3.2 km/h
37 01-04-2019 03:00:00 4.9 C 6.08 g/m*3 4.9 C 3.2 km/h
38 01-04-2019 03:05:00 4.8 C 6.04 g/m*3 4.8 C 3.2 km/h
39 01-04-2019 03:10:00 4.8 C 6.1 g/m*3 4.8 C 3.2 km/h
40 01-04-2019 03:15:00 4.8 C 6.1 g/m*3 4.8 C 1.6 km/h
41 01-04-2019 03:20:00 4.8 C 6.1 g/m*3 4.8 C 3.2 km/h
42 01-04-2019 03:25:00 4.7 C 6.06 g/m*3 4.7 C 3.2 km/h
43 01-04-2019 03:30:00 4.7 C 6 g/m*3 4.7 C 3.2 km/h
44 01-04-2019 03:35:00 4.6 C 5.96 g/m*3 4.6 C 4.8 km/h
45 01-04-2019 03:40:00 4.6 C 6.02 g/m*3 4.6 C 3.2 km/h
46 01-04-2019 03:45:00 4.6 C 6.02 g/m*3 4.6 C 1.6 km/h
47 01-04-2019 03:50:00 4.5 C 5.98 g/m*3 4.5 C 3.2 km/h
48 01-04-2019 03:55:00 4.5 C 5.98 g/m*3 4.5 C 0 km/h
49 01-04-2019 04:00:00 4.4 C 5.94 g/m*3 4.4 C 1.6 km/h
50 01-04-2019 04:05:00 4.4 C 5.88 g/m*3 4.4 C 0 km/h
Sensor: Nr:Datum:Temp:Abs-Feuchte:Windchill:Wind:
Aussen-T/F 51 01-04-2019 04:10:00 4.4 C 5.94 g/m*3 4.4 C 3.2 km/h
52 01-04-2019 04:15:00 4.3 C 5.9 g/m*3 4.3 C 0 km/h
53 01-04-2019 04:20:00 4.3 C 5.9 g/m*3 4.3 C 1.6 km/h
54 01-04-2019 04:25:00 4.3 C 5.9 g/m*3 4.3 C 0 km/h
55 01-04-2019 04:30:00 4.3 C 5.9 g/m*3 4.3 C 0 km/h
56 01-04-2019 04:35:00 4.3 C 5.9 g/m*3 4.3 C 3.2 km/h
57 01-04-2019 04:40:00 4.3 C 5.9 g/m*3 4.3 C 3.2 km/h
58 01-04-2019 04:45:00 4.3 C 5.9 g/m*3 4.3 C 1.6 km/h
59 01-04-2019 04:50:00 4.2 C 5.86 g/m*3 4.2 C 3.2 km/h
60 01-04-2019 04:55:00 4.3 C 5.9 g/m*3 4.3 C 3.2 km/h
61 01-04-2019 05:00:00 4.3 C 5.9 g/m*3 4.3 C 1.6 km/h
62 01-04-2019 05:05:00 4.2 C 5.86 g/m*3 4.2 C 0 km/h
63 01-04-2019 05:10:00 4.2 C 5.86 g/m*3 4.2 C 1.6 km/h
64 01-04-2019 05:15:00 4.2 C 5.86 g/m*3 4.2 C 0 km/h
65 01-04-2019 05:20:00 4.1 C 5.82 g/m*3 4.1 C 0 km/h
66 01-04-2019 05:25:00 4 C 5.79 g/m*3 4 C 1.6 km/h
67 01-04-2019 05:30:00 3.9 C 5.75 g/m*3 3.9 C 0 km/h
68 01-04-2019 05:35:00 3.8 C 5.71 g/m*3 3.8 C 0 km/h
69 01-04-2019 05:40:00 3.8 C 5.71 g/m*3 3.8 C 0 km/h
70 01-04-2019 05:45:00 3.8 C 5.71 g/m*3 3.8 C 0 km/h
71 01-04-2019 05:50:00 3.7 C 5.67 g/m*3 3.7 C 1.6 km/h
72 01-04-2019 05:55:00 3.7 C 5.73 g/m*3 3.7 C 3.2 km/h
73 01-04-2019 06:00:00 3.7 C 5.73 g/m*3 3.7 C 1.6 km/h
74 01-04-2019 06:05:00 3.7 C 5.73 g/m*3 3.7 C 0 km/h
75 01-04-2019 06:10:00 3.7 C 5.73 g/m*3 3.7 C 3.2 km/h
Sensor: Nr:Datum:Temp:Abs-Feuchte:Windchill:Wind:
Aussen-T/F 76 01-04-2019 06:15:00 3.7 C 5.67 g/m*3 3.7 C 0 km/h
77 01-04-2019 06:20:00 3.6 C 5.63 g/m*3 3.6 C 0 km/h
78 01-04-2019 06:25:00 3.6 C 5.63 g/m*3 3.6 C 0 km/h
79 01-04-2019 06:30:00 3.6 C 5.69 g/m*3 3.6 C 0 km/h
80 01-04-2019 06:35:00 3.5 C 5.66 g/m*3 3.5 C 0 km/h
81 01-04-2019 06:40:00 3.5 C 5.66 g/m*3 3.5 C 0 km/h
82 01-04-2019 06:45:00 3.4 C 5.62 g/m*3 3.4 C 0 km/h
83 01-04-2019 06:50:00 3.4 C 5.62 g/m*3 3.4 C 0 km/h
84 01-04-2019 06:55:00 3.4 C 5.62 g/m*3 3.4 C 0 km/h
85 01-04-2019 07:00:00 3.3 C 5.58 g/m*3 3.3 C 0 km/h
86 01-04-2019 07:05:00 3.3 C 5.58 g/m*3 3.3 C 0 km/h
87 01-04-2019 07:10:00 3.2 C 5.54 g/m*3 3.2 C 0 km/h
88 01-04-2019 07:15:00 3.2 C 5.54 g/m*3 3.2 C 3.2 km/h
89 01-04-2019 07:20:00 3.2 C 5.54 g/m*3 3.2 C 1.6 km/h
90 01-04-2019 07:25:00 3.1 C 5.51 g/m*3 3.1 C 3.2 km/h
91 01-04-2019 07:30:00 3.1 C 5.51 g/m*3 3.1 C 0 km/h
92 01-04-2019 07:35:00 3.1 C 5.51 g/m*3 3.1 C 0 km/h
93 01-04-2019 07:40:00 3 C 5.47 g/m*3 3 C 1.6 km/h
94 01-04-2019 07:45:00 3.1 C 5.57 g/m*3 3.1 C 0 km/h
95 01-04-2019 07:50:00 3.1 C 5.57 g/m*3 3.1 C 0 km/h
96 01-04-2019 07:55:00 3.1 C 5.57 g/m*3 3.1 C 0 km/h
97 01-04-2019 08:00:00 3 C 5.53 g/m*3 3 C 0 km/h
98 01-04-2019 08:05:00 3.1 C 5.57 g/m*3 3.1 C 0 km/h
99 01-04-2019 08:10:00 3.1 C 5.57 g/m*3 3.1 C 0 km/h
100 01-04-2019 08:15:00 3.1 C 5.57 g/m*3 3.1 C 0 km/h
Sensor: Nr:Datum:Temp:Abs-Feuchte:Windchill:Wind:
Aussen-T/F 101 01-04-2019 08:20:00 3.1 C 5.57 g/m*3 3.1 C 0 km/h
102 01-04-2019 08:25:00 3.1 C 5.57 g/m*3 3.1 C 0 km/h
103 01-04-2019 08:30:00 3.1 C 5.57 g/m*3 3.1 C 0 km/h
104 01-04-2019 08:35:00 3.2 C 5.6 g/m*3 3.2 C 0 km/h
105 01-04-2019 08:40:00 3.2 C 5.6 g/m*3 3.2 C 0 km/h
106 01-04-2019 08:45:00 3.3 C 5.7 g/m*3 3.3 C 0 km/h
107 01-04-2019 08:50:00 3.3 C 5.7 g/m*3 3.3 C 0 km/h
108 01-04-2019 08:55:00 3.4 C 5.74 g/m*3 3.4 C 0 km/h
109 01-04-2019 09:00:00 3.6 C 5.82 g/m*3 3.6 C 0 km/h
110 01-04-2019 09:05:00 3.7 C 5.86 g/m*3 3.7 C 1.6 km/h
111 01-04-2019 09:10:00 3.8 C 5.9 g/m*3 3.8 C 1.6 km/h
112 01-04-2019 09:15:00 4 C 5.98 g/m*3 4 C 3.2 km/h
113 01-04-2019 09:20:00 4.1 C 5.95 g/m*3 4.1 C 1.6 km/h
114 01-04-2019 09:25:00 4.2 C 5.99 g/m*3 4.2 C 0 km/h
115 01-04-2019 09:30:00 4.4 C 6.07 g/m*3 4.4 C 0 km/h
116 01-04-2019 09:35:00 4.5 C 6.05 g/m*3 4.5 C 0 km/h
117 01-04-2019 09:40:00 4.6 C 6.09 g/m*3 4.6 C 0 km/h
118 01-04-2019 09:45:00 4.7 C 6.13 g/m*3 4.7 C 0 km/h
119 01-04-2019 09:50:00 4.9 C 6.14 g/m*3 4.9 C 0 km/h
120 01-04-2019 09:55:00 5 C 6.18 g/m*3 5 C 0 km/h
121 01-04-2019 10:00:00 5.2 C 6.2 g/m*3 5.2 C 3.2 km/h
122 01-04-2019 10:05:00 5.4 C 6.21 g/m*3 5.4 C 3.2 km/h
123 01-04-2019 10:10:00 5.7 C 6.26 g/m*3 5.7 C 4.8 km/h
124 01-04-2019 10:15:00 5.8 C 6.23 g/m*3 4.05 C 8.1 km/h
125 01-04-2019 10:20:00 6.1 C 6.28 g/m*3 4.4 C 8.1 km/h
Sensor: Nr:Datum:Temp:Abs-Feuchte:Windchill:Wind:
Aussen-T/F 126 01-04-2019 10:25:00 6.4 C 6.18 g/m*3 4.08 C 11.3 km/h
127 01-04-2019 10:30:00 6.9 C 6.16 g/m*3 4.99 C 9.7 km/h
128 01-04-2019 10:35:00 7.2 C 6.44 g/m*3 5.69 C 8.1 km/h
129 01-04-2019 10:40:00 7.4 C 6.36 g/m*3 5.93 C 8.1 km/h
130 01-04-2019 10:45:00 7.6 C 6.53 g/m*3 7.6 C 0 km/h
131 01-04-2019 10:50:00 7.9 C 6.41 g/m*3 6.94 C 6.4 km/h
132 01-04-2019 10:55:00 8.2 C 6.53 g/m*3 8.2 C 4.8 km/h
133 01-04-2019 11:00:00 8.4 C 6.45 g/m*3 7.52 C 6.4 km/h
134 01-04-2019 11:05:00 8.7 C 6.4 g/m*3 7.46 C 8.1 km/h
135 01-04-2019 11:10:00 8.9 C 6.31 g/m*3 7.37 C 9.7 km/h
136 01-04-2019 11:15:00 9.2 C 6.43 g/m*3 7.73 C 9.7 km/h
137 01-04-2019 11:20:00 9.4 C 6.78 g/m*3 7.7 C 11.3 km/h
138 01-04-2019 11:25:00 9.5 C 6.46 g/m*3 8.79 C 6.4 km/h
139 01-04-2019 11:30:00 9.7 C 6.45 g/m*3 8.33 C 9.7 km/h
140 01-04-2019 11:35:00 9.9 C 6.54 g/m*3 8.06 C 12.9 km/h
141 01-04-2019 11:40:00 10 C 6.48 g/m*3 8.19 C 12.9 km/h
142 01-04-2019 11:45:00 10.1 C 6.52 g/m*3 8.54 C 11.3 km/h
143 01-04-2019 11:50:00 10.3 C 6.51 g/m*3 8.78 C 11.3 km/h
144 01-04-2019 11:55:00 10.3 C 6.61 g/m*3 10.3 C 3.2 km/h
145 01-04-2019 12:00:00 10.5 C 6.69 g/m*3 9.57 C 8.1 km/h
146 01-04-2019 12:05:00 10.7 C 6.58 g/m*3 9.04 C 12.9 km/h
147 01-04-2019 12:10:00 10.8 C 6.62 g/m*3 9.38 C 11.3 km/h
148 01-04-2019 12:15:00 10.9 C 6.56 g/m*3 9.08 C 14.5 km/h
149 01-04-2019 12:20:00 11.1 C 6.65 g/m*3 11.1 C 14.5 km/h
150 01-04-2019 12:25:00 11.2 C 6.69 g/m*3 11.2 C 11.3 km/h
Sensor: Nr:Datum:Temp:Abs-Feuchte:Windchill:Wind:
Aussen-T/F 151 01-04-2019 12:30:00 11.3 C 6.73 g/m*3 11.3 C 9.7 km/h
152 01-04-2019 12:35:00 11.5 C 6.71 g/m*3 11.5 C 6.4 km/h
153 01-04-2019 12:40:00 11.7 C 6.69 g/m*3 11.7 C 8.1 km/h
154 01-04-2019 12:45:00 11.8 C 6.74 g/m*3 11.8 C 9.7 km/h
155 01-04-2019 12:50:00 11.9 C 6.88 g/m*3 11.9 C 4.8 km/h
156 01-04-2019 12:55:00 12 C 6.82 g/m*3 12 C 9.7 km/h
157 01-04-2019 13:00:00 12.2 C 6.69 g/m*3 12.2 C 12.9 km/h
158 01-04-2019 13:05:00 12.3 C 6.84 g/m*3 12.3 C 8.1 km/h
159 01-04-2019 13:10:00 12.4 C 6.77 g/m*3 12.4 C 8.1 km/h
160 01-04-2019 13:15:00 12.6 C 6.97 g/m*3 12.6 C 6.4 km/h
161 01-04-2019 13:20:00 12.7 C 6.9 g/m*3 12.7 C 9.7 km/h
162 01-04-2019 13:25:00 12.8 C 6.94 g/m*3 12.8 C 8.1 km/h
163 01-04-2019 13:30:00 13.1 C 6.96 g/m*3 13.1 C 14.5 km/h
164 01-04-2019 13:35:00 13.3 C 7.05 g/m*3 13.3 C 8.1 km/h
165 01-04-2019 13:40:00 13.4 C 6.97 g/m*3 13.4 C 8.1 km/h
166 01-04-2019 13:45:00 13.6 C 7.18 g/m*3 13.6 C 8.1 km/h
167 01-04-2019 13:50:00 13.8 C 7.15 g/m*3 13.8 C 8.1 km/h
168 01-04-2019 13:55:00 13.9 C 7.07 g/m*3 13.9 C 9.7 km/h
169 01-04-2019 14:00:00 14.1 C 7.28 g/m*3 14.1 C 8.1 km/h
170 01-04-2019 14:05:00 14.3 C 7.13 g/m*3 14.3 C 11.3 km/h
171 01-04-2019 14:10:00 14.4 C 7.17 g/m*3 14.4 C 14.5 km/h
172 01-04-2019 14:15:00 14.6 C 7.26 g/m*3 14.6 C 9.7 km/h
173 01-04-2019 14:20:00 14.8 C 7.35 g/m*3 14.8 C 11.3 km/h
174 01-04-2019 14:25:00 14.9 C 7.26 g/m*3 14.9 C 9.7 km/h
175 01-04-2019 14:30:00 15 C 7.18 g/m*3 15 C 8.1 km/h
Sensor: Nr:Datum:Temp:Abs-Feuchte:Windchill:Wind:
Aussen-T/F 176 01-04-2019 14:35:00 15.1 C 7.22 g/m*3 15.1 C 11.3 km/h
177 01-04-2019 14:40:00 15.2 C 7.14 g/m*3 15.2 C 14.5 km/h
178 01-04-2019 14:45:00 15.3 C 7.31 g/m*3 15.3 C 8.1 km/h
179 01-04-2019 14:50:00 15.5 C 7.4 g/m*3 15.5 C 12.9 km/h
180 01-04-2019 14:55:00 15.8 C 7.4 g/m*3 15.8 C 8.1 km/h
181 01-04-2019 15:00:00 15.9 C 7.72 g/m*3 15.9 C 12.9 km/h
182 01-04-2019 15:05:00 16 C 7.22 g/m*3 16 C 9.7 km/h
183 01-04-2019 15:10:00 16.1 C 7.4 g/m*3 16.1 C 8.1 km/h
184 01-04-2019 15:15:00 16.1 C 7.4 g/m*3 16.1 C 11.3 km/h
185 01-04-2019 15:20:00 16.2 C 7.58 g/m*3 16.2 C 6.4 km/h
186 01-04-2019 15:25:00 16.3 C 7.49 g/m*3 16.3 C 6.4 km/h
187 01-04-2019 15:30:00 16.4 C 7.68 g/m*3 16.4 C 8.1 km/h
188 01-04-2019 15:35:00 16.6 C 7.63 g/m*3 16.6 C 6.4 km/h
189 01-04-2019 15:40:00 16.6 C 7.49 g/m*3 16.6 C 8.1 km/h
190 01-04-2019 15:45:00 16.8 C 7.43 g/m*3 16.8 C 4.8 km/h
191 01-04-2019 15:50:00 16.9 C 7.48 g/m*3 16.9 C 8.1 km/h
192 01-04-2019 15:55:00 16.8 C 7.43 g/m*3 16.8 C 14.5 km/h
193 01-04-2019 16:00:00 16.8 C 7.29 g/m*3 16.8 C 6.4 km/h
194 01-04-2019 16:05:00 16.9 C 7.34 g/m*3 16.9 C 8.1 km/h
195 01-04-2019 16:10:00 16.9 C 7.48 g/m*3 16.9 C 8.1 km/h
196 01-04-2019 16:15:00 17 C 7.52 g/m*3 17 C 4.8 km/h
197 01-04-2019 16:20:00 17.2 C 7.76 g/m*3 17.2 C 4.8 km/h
198 01-04-2019 16:25:00 17.6 C 7.8 g/m*3 17.6 C 3.2 km/h
199 01-04-2019 16:30:00 17.8 C 7.74 g/m*3 17.8 C 6.4 km/h
200 01-04-2019 16:35:00 17.8 C 7.29 g/m*3 17.8 C 4.8 km/h
Sensor: Nr:Datum:Temp:Abs-Feuchte:Windchill:Wind:
Aussen-T/F 201 01-04-2019 16:40:00 17.8 C 7.44 g/m*3 17.8 C 6.4 km/h
202 01-04-2019 16:45:00 17.9 C 7.79 g/m*3 17.9 C 6.4 km/h
203 01-04-2019 16:50:00 18.2 C 7.46 g/m*3 18.2 C 6.4 km/h
204 01-04-2019 16:55:00 18.1 C 7.42 g/m*3 18.1 C 8.1 km/h
205 01-04-2019 17:00:00 18 C 7.53 g/m*3 18 C 6.4 km/h
206 01-04-2019 17:05:00 18.2 C 7.62 g/m*3 18.2 C 4.8 km/h
207 01-04-2019 17:10:00 18.3 C 7.35 g/m*3 18.3 C 8.1 km/h
208 01-04-2019 17:15:00 18.3 C 7.51 g/m*3 18.3 C 6.4 km/h
209 01-04-2019 17:20:00 18.5 C 7.91 g/m*3 18.5 C 4.8 km/h
210 01-04-2019 17:25:00 18.7 C 7.68 g/m*3 18.7 C 11.3 km/h
211 01-04-2019 17:30:00 18.5 C 7.44 g/m*3 18.5 C 9.7 km/h
212 01-04-2019 17:35:00 18.3 C 7.51 g/m*3 18.3 C 9.7 km/h
213 01-04-2019 17:40:00 18.2 C 7.15 g/m*3 18.2 C 9.7 km/h
214 01-04-2019 17:45:00 18.1 C 7.26 g/m*3 18.1 C 11.3 km/h
215 01-04-2019 17:50:00 18.1 C 7.26 g/m*3 18.1 C 9.7 km/h
216 01-04-2019 17:55:00 18.1 C 7.11 g/m*3 18.1 C 9.7 km/h
217 01-04-2019 18:00:00 18 C 7.22 g/m*3 18 C 9.7 km/h
218 01-04-2019 18:05:00 18 C 7.22 g/m*3 18 C 8.1 km/h
219 01-04-2019 18:10:00 18.2 C 7.31 g/m*3 18.2 C 4.8 km/h
220 01-04-2019 18:15:00 18.3 C 7.35 g/m*3 18.3 C 8.1 km/h
221 01-04-2019 18:20:00 18.1 C 7.11 g/m*3 18.1 C 6.4 km/h
222 01-04-2019 18:25:00 18 C 7.22 g/m*3 18 C 11.3 km/h
223 01-04-2019 18:30:00 17.9 C 7.33 g/m*3 17.9 C 4.8 km/h
224 01-04-2019 18:35:00 17.9 C 7.18 g/m*3 17.9 C 6.4 km/h
225 01-04-2019 18:40:00 17.8 C 7.13 g/m*3 17.8 C 8.1 km/h
Sensor: Nr:Datum:Temp:Abs-Feuchte:Windchill:Wind:
Aussen-T/F 226 01-04-2019 18:45:00 17.6 C 7.05 g/m*3 17.6 C 9.7 km/h
227 01-04-2019 18:50:00 17.4 C 7.11 g/m*3 17.4 C 8.1 km/h
228 01-04-2019 18:55:00 17.3 C 7.37 g/m*3 17.3 C 6.4 km/h
229 01-04-2019 19:00:00 17.3 C 7.22 g/m*3 17.3 C 6.4 km/h
230 01-04-2019 19:05:00 17.2 C 7.61 g/m*3 17.2 C 9.7 km/h
231 01-04-2019 19:10:00 17.1 C 7.13 g/m*3 17.1 C 8.1 km/h
232 01-04-2019 19:15:00 16.9 C 7.34 g/m*3 16.9 C 4.8 km/h
233 01-04-2019 19:20:00 16.9 C 7.91 g/m*3 16.9 C 0 km/h
234 01-04-2019 19:25:00 16.7 C 7.96 g/m*3 16.7 C 0 km/h
235 01-04-2019 19:30:00 16.3 C 7.91 g/m*3 16.3 C 3.2 km/h
236 01-04-2019 19:35:00 15.8 C 7.4 g/m*3 15.8 C 4.8 km/h
237 01-04-2019 19:40:00 15.3 C 7.7 g/m*3 15.3 C 3.2 km/h
238 01-04-2019 19:45:00 14.7 C 7.68 g/m*3 14.7 C 3.2 km/h
239 01-04-2019 19:50:00 14.1 C 7.65 g/m*3 14.1 C 0 km/h
240 01-04-2019 19:55:00 13.7 C 7.58 g/m*3 13.7 C 4.8 km/h
241 01-04-2019 20:00:00 13.2 C 7.58 g/m*3 13.2 C 4.8 km/h
242 01-04-2019 20:05:00 12.8 C 7.5 g/m*3 12.8 C 6.4 km/h
243 01-04-2019 20:10:00 12.5 C 7.48 g/m*3 12.5 C 4.8 km/h
244 01-04-2019 20:15:00 12.2 C 7.45 g/m*3 12.2 C 4.8 km/h
245 01-04-2019 20:20:00 12 C 7.46 g/m*3 12 C 4.8 km/h
246 01-04-2019 20:25:00 11.7 C 7.43 g/m*3 11.7 C 4.8 km/h
247 01-04-2019 20:30:00 11.6 C 7.38 g/m*3 11.6 C 4.8 km/h
248 01-04-2019 20:35:00 11.3 C 7.34 g/m*3 11.3 C 6.4 km/h
249 01-04-2019 20:40:00 11.2 C 7.3 g/m*3 11.2 C 6.4 km/h
250 01-04-2019 20:45:00 11.1 C 7.35 g/m*3 11.1 C 4.8 km/h
Sensor: Nr:Datum:Temp:Abs-Feuchte:Windchill:Wind:
Aussen-T/F 251 01-04-2019 20:50:00 10.9 C 7.26 g/m*3 10.9 C 4.8 km/h
252 01-04-2019 20:55:00 10.8 C 7.31 g/m*3 10.8 C 4.8 km/h
253 01-04-2019 21:00:00 10.7 C 7.27 g/m*3 10.18 C 6.4 km/h
254 01-04-2019 21:05:00 10.6 C 7.32 g/m*3 10.06 C 6.4 km/h
255 01-04-2019 21:10:00 10.4 C 7.23 g/m*3 10.4 C 4.8 km/h
256 01-04-2019 21:15:00 10.3 C 7.18 g/m*3 10.3 C 4.8 km/h
257 01-04-2019 21:20:00 10.3 C 7.18 g/m*3 10.3 C 4.8 km/h
258 01-04-2019 21:25:00 10.2 C 7.23 g/m*3 10.2 C 4.8 km/h
259 01-04-2019 21:30:00 10.1 C 7.19 g/m*3 10.1 C 4.8 km/h
260 01-04-2019 21:35:00 10 C 7.14 g/m*3 10 C 4.8 km/h
261 01-04-2019 21:40:00 9.9 C 7.1 g/m*3 9.9 C 4.8 km/h
262 01-04-2019 21:45:00 9.9 C 7.1 g/m*3 9.9 C 4.8 km/h
263 01-04-2019 21:50:00 9.8 C 7.14 g/m*3 9.8 C 0 km/h
264 01-04-2019 21:55:00 9.7 C 7.1 g/m*3 9.7 C 4.8 km/h
265 01-04-2019 22:00:00 9.7 C 7.1 g/m*3 9.7 C 3.2 km/h
266 01-04-2019 22:05:00 9.6 C 7.05 g/m*3 9.6 C 3.2 km/h
267 01-04-2019 22:10:00 9.5 C 7.01 g/m*3 9.5 C 0 km/h
268 01-04-2019 22:15:00 9.4 C 6.96 g/m*3 8.68 C 6.4 km/h
269 01-04-2019 22:20:00 9.4 C 6.96 g/m*3 9.4 C 4.8 km/h
270 01-04-2019 22:25:00 9.4 C 6.96 g/m*3 9.4 C 1.6 km/h
271 01-04-2019 22:30:00 9.3 C 6.92 g/m*3 9.3 C 0 km/h
272 01-04-2019 22:35:00 9.2 C 6.97 g/m*3 9.2 C 0 km/h
273 01-04-2019 22:40:00 9.2 C 6.88 g/m*3 9.2 C 0 km/h
274 01-04-2019 22:45:00 9.1 C 6.83 g/m*3 9.1 C 0 km/h
275 01-04-2019 22:50:00 9.2 C 6.88 g/m*3 9.2 C 3.2 km/h
Sensor: Nr:Datum:Temp:Abs-Feuchte:Windchill:Wind:
Aussen-T/F 276 01-04-2019 22:55:00 9.2 C 6.88 g/m*3 9.2 C 4.8 km/h
277 01-04-2019 23:00:00 9.2 C 6.79 g/m*3 9.2 C 3.2 km/h
278 01-04-2019 23:05:00 9.1 C 6.74 g/m*3 9.1 C 3.2 km/h
279 01-04-2019 23:10:00 9 C 6.79 g/m*3 9 C 4.8 km/h
280 01-04-2019 23:15:00 8.9 C 6.75 g/m*3 8.9 C 3.2 km/h
281 01-04-2019 23:20:00 8.9 C 6.75 g/m*3 8.9 C 1.6 km/h
282 01-04-2019 23:25:00 8.8 C 6.7 g/m*3 8.8 C 0 km/h
283 01-04-2019 23:30:00 8.8 C 6.7 g/m*3 8.8 C 0 km/h
284 01-04-2019 23:35:00 8.7 C 6.75 g/m*3 8.7 C 0 km/h
285 01-04-2019 23:40:00 8.6 C 6.7 g/m*3 8.6 C 3.2 km/h
286 01-04-2019 23:45:00 8.6 C 6.7 g/m*3 8.6 C 3.2 km/h
287 01-04-2019 23:50:00 8.5 C 6.74 g/m*3 8.5 C 0 km/h
288 01-04-2019 23:55:00 8.4 C 6.7 g/m*3 8.4 C 0 km/h
289 02-04-2019 00:00:00 8.3 C 6.66 g/m*3 8.3 C 0 km/h
290 02-04-2019 00:05:00 8.3 C 6.74 g/m*3 8.3 C 0 km/h
291 02-04-2019 00:10:00 8.2 C 6.7 g/m*3 8.2 C 0 km/h
292 02-04-2019 00:15:00 8.1 C 6.66 g/m*3 8.1 C 0 km/h
293 02-04-2019 00:20:00 8.1 C 6.66 g/m*3 8.1 C 0 km/h
294 02-04-2019 00:25:00 7.9 C 6.57 g/m*3 7.9 C 0 km/h
295 02-04-2019 00:30:00 7.9 C 6.65 g/m*3 7.9 C 0 km/h
296 02-04-2019 00:35:00 7.8 C 6.61 g/m*3 7.8 C 0 km/h
297 02-04-2019 00:40:00 7.8 C 6.61 g/m*3 7.8 C 0 km/h
298 02-04-2019 00:45:00 7.7 C 6.57 g/m*3 7.7 C 0 km/h
299 02-04-2019 00:50:00 7.6 C 6.53 g/m*3 7.6 C 0 km/h
300 02-04-2019 00:55:00 7.5 C 6.56 g/m*3 7.5 C 0 km/h
Sensor: Nr:Datum:Temp:Abs-Feuchte:Windchill:Wind:
Aussen-T/F 301 02-04-2019 01:00:00 7.4 C 6.52 g/m*3 7.4 C 0 km/h
302 02-04-2019 01:05:00 7.3 C 6.48 g/m*3 7.3 C 0 km/h
303 02-04-2019 01:10:00 7.2 C 6.52 g/m*3 7.2 C 0 km/h
304 02-04-2019 01:15:00 7.2 C 6.52 g/m*3 7.2 C 0 km/h
305 02-04-2019 01:20:00 7.1 C 6.47 g/m*3 7.1 C 0 km/h
306 02-04-2019 01:25:00 7.1 C 6.47 g/m*3 7.1 C 0 km/h
307 02-04-2019 01:30:00 7 C 6.43 g/m*3 7 C 0 km/h
308 02-04-2019 01:35:00 6.9 C 6.39 g/m*3 6.9 C 0 km/h
309 02-04-2019 01:40:00 6.9 C 6.47 g/m*3 6.9 C 0 km/h
310 02-04-2019 01:45:00 6.8 C 6.42 g/m*3 6.8 C 0 km/h
311 02-04-2019 01:50:00 6.8 C 6.42 g/m*3 6.8 C 0 km/h
312 02-04-2019 01:55:00 6.8 C 6.42 g/m*3 6.8 C 0 km/h
313 02-04-2019 02:00:00 6.7 C 6.38 g/m*3 6.7 C 0 km/h
314 02-04-2019 02:05:00 6.7 C 6.38 g/m*3 6.7 C 0 km/h
315 02-04-2019 02:10:00 6.6 C 6.34 g/m*3 6.6 C 0 km/h
316 02-04-2019 02:15:00 6.5 C 6.3 g/m*3 6.5 C 0 km/h
317 02-04-2019 02:20:00 6.4 C 6.26 g/m*3 6.4 C 0 km/h
318 02-04-2019 02:25:00 6.4 C 6.33 g/m*3 6.4 C 0 km/h
319 02-04-2019 02:30:00 6.4 C 6.33 g/m*3 6.4 C 0 km/h
320 02-04-2019 02:35:00 6.3 C 6.22 g/m*3 6.3 C 0 km/h
321 02-04-2019 02:40:00 6.1 C 6.21 g/m*3 6.1 C 0 km/h
322 02-04-2019 02:45:00 5.9 C 6.13 g/m*3 5.9 C 0 km/h
323 02-04-2019 02:50:00 5.8 C 6.16 g/m*3 5.8 C 0 km/h
324 02-04-2019 02:55:00 5.8 C 6.16 g/m*3 5.8 C 0 km/h
325 02-04-2019 03:00:00 5.7 C 6.12 g/m*3 5.7 C 0 km/h
Sensor: Nr:Datum:Temp:Abs-Feuchte:Windchill:Wind:
Aussen-T/F 326 02-04-2019 03:05:00 5.6 C 6.08 g/m*3 5.6 C 0 km/h
327 02-04-2019 03:10:00 5.4 C 6 g/m*3 5.4 C 0 km/h
328 02-04-2019 03:15:00 5.3 C 6.03 g/m*3 5.3 C 0 km/h
329 02-04-2019 03:20:00 5.2 C 5.99 g/m*3 5.2 C 0 km/h
330 02-04-2019 03:25:00 5.2 C 6.06 g/m*3 5.2 C 0 km/h
331 02-04-2019 03:30:00 5.1 C 6.02 g/m*3 5.1 C 0 km/h
332 02-04-2019 03:35:00 4.9 C 5.94 g/m*3 4.9 C 0 km/h
333 02-04-2019 03:40:00 4.8 C 5.9 g/m*3 4.8 C 0 km/h
334 02-04-2019 03:45:00 4.7 C 5.86 g/m*3 4.7 C 0 km/h
335 02-04-2019 03:50:00 4.6 C 5.89 g/m*3 4.6 C 0 km/h
336 02-04-2019 03:55:00 4.6 C 5.89 g/m*3 4.6 C 0 km/h
337 02-04-2019 04:00:00 4.6 C 5.89 g/m*3 4.6 C 0 km/h
338 02-04-2019 04:05:00 4.6 C 5.96 g/m*3 4.6 C 0 km/h
339 02-04-2019 04:10:00 4.6 C 5.96 g/m*3 4.6 C 0 km/h
340 02-04-2019 04:15:00 4.5 C 5.85 g/m*3 4.5 C 0 km/h
341 02-04-2019 04:20:00 4.4 C 5.88 g/m*3 4.4 C 0 km/h
342 02-04-2019 04:25:00 4.4 C 5.88 g/m*3 4.4 C 0 km/h
343 02-04-2019 04:30:00 4.3 C 5.84 g/m*3 4.3 C 0 km/h
344 02-04-2019 04:35:00 4.3 C 5.84 g/m*3 4.3 C 0 km/h
345 02-04-2019 04:40:00 4.3 C 5.84 g/m*3 4.3 C 0 km/h
346 02-04-2019 04:45:00 4.3 C 5.9 g/m*3 4.3 C 0 km/h
347 02-04-2019 04:50:00 4.2 C 5.86 g/m*3 4.2 C 0 km/h
348 02-04-2019 04:55:00 4.2 C 5.86 g/m*3 4.2 C 0 km/h
349 02-04-2019 05:00:00 4.2 C 5.86 g/m*3 4.2 C 0 km/h
350 02-04-2019 05:05:00 4.1 C 5.82 g/m*3 4.1 C 0 km/h
Sensor: Nr:Datum:Temp:Abs-Feuchte:Windchill:Wind:
Aussen-T/F 351 02-04-2019 05:10:00 4.1 C 5.82 g/m*3 4.1 C 0 km/h
352 02-04-2019 05:15:00 4.1 C 5.82 g/m*3 4.1 C 0 km/h
353 02-04-2019 05:20:00 4.1 C 5.82 g/m*3 4.1 C 0 km/h
354 02-04-2019 05:25:00 4.1 C 5.82 g/m*3 4.1 C 0 km/h
355 02-04-2019 05:30:00 3.9 C 5.75 g/m*3 3.9 C 0 km/h
356 02-04-2019 05:35:00 3.9 C 5.75 g/m*3 3.9 C 0 km/h
357 02-04-2019 05:40:00 3.8 C 5.71 g/m*3 3.8 C 0 km/h
358 02-04-2019 05:45:00 3.8 C 5.71 g/m*3 3.8 C 0 km/h
359 02-04-2019 05:50:00 3.8 C 5.77 g/m*3 3.8 C 0 km/h
360 02-04-2019 05:55:00 3.7 C 5.73 g/m*3 3.7 C 0 km/h
361 02-04-2019 06:00:00 3.7 C 5.73 g/m*3 3.7 C 0 km/h
362 02-04-2019 06:05:00 3.8 C 5.77 g/m*3 3.8 C 0 km/h
363 02-04-2019 06:10:00 4 C 5.91 g/m*3 4 C 0 km/h
364 02-04-2019 06:15:00 4.1 C 5.89 g/m*3 4.1 C 0 km/h
365 02-04-2019 06:20:00 4.1 C 5.89 g/m*3 4.1 C 0 km/h
366 02-04-2019 06:25:00 3.9 C 5.81 g/m*3 3.9 C 0 km/h
367 02-04-2019 06:30:00 3.9 C 5.81 g/m*3 3.9 C 0 km/h
368 02-04-2019 06:35:00 3.8 C 5.77 g/m*3 3.8 C 0 km/h
369 02-04-2019 06:40:00 3.9 C 5.81 g/m*3 3.9 C 0 km/h
370 02-04-2019 06:45:00 3.8 C 5.77 g/m*3 3.8 C 0 km/h
371 02-04-2019 06:50:00 3.8 C 5.77 g/m*3 3.8 C 0 km/h
372 02-04-2019 06:55:00 3.8 C 5.77 g/m*3 3.8 C 0 km/h
373 02-04-2019 07:00:00 3.8 C 5.77 g/m*3 3.8 C 0 km/h
374 02-04-2019 07:05:00 3.8 C 5.77 g/m*3 3.8 C 0 km/h
375 02-04-2019 07:10:00 3.7 C 5.73 g/m*3 3.7 C 0 km/h
Sensor: Nr:Datum:Temp:Abs-Feuchte:Windchill:Wind:
Aussen-T/F 376 02-04-2019 07:15:00 3.8 C 5.83 g/m*3 3.8 C 0 km/h
377 02-04-2019 07:20:00 3.8 C 5.83 g/m*3 3.8 C 0 km/h
378 02-04-2019 07:25:00 3.9 C 5.87 g/m*3 3.9 C 0 km/h
379 02-04-2019 07:30:00 4 C 5.91 g/m*3 4 C 0 km/h
380 02-04-2019 07:35:00 4.1 C 5.95 g/m*3 4.1 C 0 km/h
381 02-04-2019 07:40:00 4.2 C 6.06 g/m*3 4.2 C 0 km/h
382 02-04-2019 07:45:00 4.3 C 6.1 g/m*3 4.3 C 0 km/h
383 02-04-2019 07:50:00 4.3 C 6.03 g/m*3 4.3 C 0 km/h
384 02-04-2019 07:55:00 4.4 C 6.07 g/m*3 4.4 C 0 km/h
385 02-04-2019 08:00:00 4.4 C 6.07 g/m*3 4.4 C 0 km/h
386 02-04-2019 08:05:00 4.5 C 6.11 g/m*3 4.5 C 0 km/h
387 02-04-2019 08:10:00 4.6 C 6.15 g/m*3 4.6 C 0 km/h
388 02-04-2019 08:15:00 4.6 C 6.15 g/m*3 4.6 C 0 km/h
389 02-04-2019 08:20:00 4.7 C 6.19 g/m*3 4.7 C 0 km/h
390 02-04-2019 08:25:00 4.8 C 6.3 g/m*3 4.8 C 0 km/h
391 02-04-2019 08:30:00 5 C 6.32 g/m*3 5 C 0 km/h
392 02-04-2019 08:35:00 5.2 C 6.4 g/m*3 5.2 C 0 km/h
393 02-04-2019 08:40:00 5.3 C 6.45 g/m*3 5.3 C 0 km/h
394 02-04-2019 08:45:00 5.4 C 6.49 g/m*3 5.4 C 0 km/h
395 02-04-2019 08:50:00 5.6 C 6.5 g/m*3 5.6 C 0 km/h
396 02-04-2019 08:55:00 5.7 C 6.55 g/m*3 5.7 C 0 km/h
397 02-04-2019 09:00:00 5.8 C 6.59 g/m*3 5.8 C 0 km/h
398 02-04-2019 09:05:00 5.9 C 6.56 g/m*3 5.9 C 0 km/h
399 02-04-2019 09:10:00 6 C 6.6 g/m*3 6 C 0 km/h
400 02-04-2019 09:15:00 6.1 C 6.65 g/m*3 6.1 C 0 km/h
Sensor: Nr:Datum:Temp:Abs-Feuchte:Windchill:Wind:
Aussen-T/F 401 02-04-2019 09:20:00 6.3 C 6.66 g/m*3 6.3 C 0 km/h
402 02-04-2019 09:25:00 6.4 C 6.71 g/m*3 6.4 C 0 km/h
403 02-04-2019 09:30:00 6.6 C 6.72 g/m*3 6.6 C 0 km/h
404 02-04-2019 09:35:00 6.8 C 6.81 g/m*3 6.8 C 0 km/h
405 02-04-2019 09:40:00 6.9 C 6.77 g/m*3 6.9 C 0 km/h
406 02-04-2019 09:45:00 7.1 C 6.79 g/m*3 7.1 C 0 km/h
407 02-04-2019 09:50:00 7.2 C 6.83 g/m*3 7.2 C 0 km/h
408 02-04-2019 09:55:00 7.3 C 6.87 g/m*3 7.3 C 0 km/h
409 02-04-2019 10:00:00 7.6 C 6.93 g/m*3 7.6 C 0 km/h
410 02-04-2019 10:05:00 7.7 C 6.81 g/m*3 7.7 C 0 km/h
411 02-04-2019 10:10:00 7.8 C 6.77 g/m*3 7.8 C 0 km/h
412 02-04-2019 10:15:00 8.1 C 6.91 g/m*3 8.1 C 0 km/h
413 02-04-2019 10:20:00 8.3 C 7 g/m*3 8.3 C 0 km/h
414 02-04-2019 10:25:00 8.5 C 7.09 g/m*3 8.5 C 0 km/h
415 02-04-2019 10:30:00 8.8 C 7.22 g/m*3 8.8 C 0 km/h
416 02-04-2019 10:35:00 9 C 7.14 g/m*3 9 C 0 km/h
417 02-04-2019 10:40:00 9.3 C 7.28 g/m*3 9.3 C 0 km/h
418 02-04-2019 10:45:00 9.6 C 7.33 g/m*3 9.6 C 0 km/h
419 02-04-2019 10:50:00 9.8 C 7.33 g/m*3 9.8 C 0 km/h
420 02-04-2019 10:55:00 10.1 C 7.38 g/m*3 10.1 C 0 km/h
421 02-04-2019 11:00:00 10.4 C 7.52 g/m*3 10.4 C 0 km/h
422 02-04-2019 11:05:00 10.8 C 7.51 g/m*3 10.8 C 0 km/h
423 02-04-2019 11:10:00 11.1 C 7.66 g/m*3 11.1 C 0 km/h
424 02-04-2019 11:15:00 11.4 C 7.7 g/m*3 11.4 C 6.4 km/h
425 02-04-2019 11:20:00 11.7 C 7.84 g/m*3 11.7 C 4.8 km/h
Sensor: Nr:Datum:Temp:Abs-Feuchte:Windchill:Wind:
Aussen-T/F 426 02-04-2019 11:25:00 11.9 C 7.84 g/m*3 11.9 C 3.2 km/h
427 02-04-2019 11:30:00 12.1 C 8.15 g/m*3 12.1 C 4.8 km/h
428 02-04-2019 11:35:00 12.3 C 8.14 g/m*3 12.3 C 3.2 km/h
429 02-04-2019 11:40:00 12.5 C 8.14 g/m*3 12.5 C 3.2 km/h
430 02-04-2019 11:45:00 12.8 C 8.29 g/m*3 12.8 C 3.2 km/h
431 02-04-2019 11:50:00 13.1 C 8.33 g/m*3 13.1 C 1.6 km/h
432 02-04-2019 11:55:00 13.3 C 8.43 g/m*3 13.3 C 3.2 km/h
433 02-04-2019 12:00:00 13.6 C 8.47 g/m*3 13.6 C 0 km/h
434 02-04-2019 12:05:00 13.9 C 8.51 g/m*3 13.9 C 0 km/h
435 02-04-2019 12:10:00 14.2 C 8.55 g/m*3 14.2 C 3.2 km/h
436 02-04-2019 12:15:00 14.5 C 8.58 g/m*3 14.5 C 3.2 km/h
437 02-04-2019 12:20:00 14.7 C 8.44 g/m*3 14.7 C 1.6 km/h
438 02-04-2019 12:25:00 15 C 8.46 g/m*3 15 C 3.2 km/h
439 02-04-2019 12:30:00 15.2 C 8.57 g/m*3 15.2 C 6.4 km/h
440 02-04-2019 12:35:00 15.3 C 8.36 g/m*3 15.3 C 4.8 km/h
441 02-04-2019 12:40:00 15.6 C 8.64 g/m*3 15.6 C 6.4 km/h
442 02-04-2019 12:45:00 15.8 C 8.62 g/m*3 15.8 C 3.2 km/h
443 02-04-2019 12:50:00 16.1 C 8.77 g/m*3 16.1 C 8.1 km/h
444 02-04-2019 12:55:00 16.3 C 8.74 g/m*3 16.3 C 8.1 km/h
445 02-04-2019 13:00:00 16.4 C 8.79 g/m*3 16.4 C 6.4 km/h
446 02-04-2019 13:05:00 16.6 C 8.76 g/m*3 16.6 C 9.7 km/h
447 02-04-2019 13:10:00 16.6 C 8.76 g/m*3 16.6 C 9.7 km/h
448 02-04-2019 13:15:00 16.7 C 8.67 g/m*3 16.7 C 6.4 km/h
449 02-04-2019 13:20:00 16.7 C 8.81 g/m*3 16.7 C 4.8 km/h
450 02-04-2019 13:25:00 16.7 C 8.67 g/m*3 16.7 C 1.6 km/h
Sensor: Nr:Datum:Temp:Abs-Feuchte:Windchill:Wind:
Aussen-T/F 451 02-04-2019 13:30:00 16.8 C 8.58 g/m*3 16.8 C 6.4 km/h
452 02-04-2019 13:35:00 16.8 C 8.44 g/m*3 16.8 C 0 km/h
453 02-04-2019 13:40:00 16.8 C 8.58 g/m*3 16.8 C 1.6 km/h
454 02-04-2019 13:45:00 16.9 C 8.49 g/m*3 16.9 C 9.7 km/h
455 02-04-2019 13:50:00 17.2 C 8.79 g/m*3 17.2 C 9.7 km/h
456 02-04-2019 13:55:00 17.5 C 9.09 g/m*3 17.5 C 8.1 km/h
457 02-04-2019 14:00:00 17.7 C 8.75 g/m*3 17.7 C 8.1 km/h
458 02-04-2019 14:05:00 17.9 C 9.16 g/m*3 17.9 C 8.1 km/h
459 02-04-2019 14:10:00 18 C 8.75 g/m*3 18 C 11.3 km/h
460 02-04-2019 14:15:00 18 C 8.91 g/m*3 18 C 11.3 km/h
461 02-04-2019 14:20:00 18 C 8.91 g/m*3 18 C 8.1 km/h
462 02-04-2019 14:25:00 18.2 C 9.01 g/m*3 18.2 C 8.1 km/h
463 02-04-2019 14:30:00 18.3 C 9.07 g/m*3 18.3 C 9.7 km/h
464 02-04-2019 14:35:00 18.3 C 8.91 g/m*3 18.3 C 14.5 km/h
465 02-04-2019 14:40:00 18.2 C 8.86 g/m*3 18.2 C 12.9 km/h
466 02-04-2019 14:45:00 17.9 C 8.86 g/m*3 17.9 C 4.8 km/h
467 02-04-2019 14:50:00 17.7 C 8.9 g/m*3 17.7 C 8.1 km/h
468 02-04-2019 14:55:00 17.5 C 8.8 g/m*3 17.5 C 9.7 km/h
469 02-04-2019 15:00:00 17.3 C 8.84 g/m*3 17.3 C 16.1 km/h
470 02-04-2019 15:05:00 16.8 C 9.29 g/m*3 16.8 C 19.3 km/h
471 02-04-2019 15:10:00 16.2 C 9.38 g/m*3 16.2 C 14.5 km/h
472 02-04-2019 15:15:00 15.9 C 9.75 g/m*3 15.9 C 8.1 km/h
473 02-04-2019 15:20:00 15.8 C 9.56 g/m*3 15.8 C 9.7 km/h
474 02-04-2019 15:25:00 15.9 C 9.07 g/m*3 15.9 C 16.1 km/h
475 02-04-2019 15:30:00 16.3 C 9.02 g/m*3 16.3 C 11.3 km/h
Sensor: Nr:Datum:Temp:Abs-Feuchte:Windchill:Wind:
Aussen-T/F 476 02-04-2019 15:35:00 16.7 C 8.95 g/m*3 16.7 C 6.4 km/h
477 02-04-2019 15:40:00 17.1 C 8.88 g/m*3 17.1 C 8.1 km/h
478 02-04-2019 15:45:00 17.3 C 8.84 g/m*3 17.3 C 17.7 km/h
479 02-04-2019 15:50:00 17.6 C 9 g/m*3 17.6 C 11.3 km/h
480 02-04-2019 15:55:00 17.8 C 8.35 g/m*3 17.8 C 12.9 km/h
481 02-04-2019 16:00:00 18 C 8.45 g/m*3 18 C 16.1 km/h
482 02-04-2019 16:05:00 18 C 8.45 g/m*3 18 C 20.9 km/h
483 02-04-2019 16:10:00 17.9 C 8.24 g/m*3 17.9 C 24.1 km/h
484 02-04-2019 16:15:00 17.9 C 8.24 g/m*3 17.9 C 16.1 km/h
485 02-04-2019 16:20:00 18.1 C 8.5 g/m*3 18.1 C 20.9 km/h
486 02-04-2019 16:25:00 18.1 C 8.5 g/m*3 18.1 C 17.7 km/h
487 02-04-2019 16:30:00 17.9 C 8.4 g/m*3 17.9 C 9.7 km/h
488 02-04-2019 16:35:00 17.7 C 8.15 g/m*3 17.7 C 12.9 km/h
489 02-04-2019 16:40:00 17.3 C 8.4 g/m*3 17.3 C 9.7 km/h
490 02-04-2019 16:45:00 16.9 C 8.92 g/m*3 16.9 C 19.3 km/h
491 02-04-2019 16:50:00 16.2 C 9.24 g/m*3 16.2 C 16.1 km/h
492 02-04-2019 16:55:00 15.6 C 9.18 g/m*3 15.6 C 12.9 km/h
493 02-04-2019 17:00:00 15.3 C 9.14 g/m*3 15.3 C 11.3 km/h
494 02-04-2019 17:05:00 15.3 C 9.14 g/m*3 15.3 C 11.3 km/h
495 02-04-2019 17:10:00 15.4 C 9.07 g/m*3 15.4 C 8.1 km/h
496 02-04-2019 17:15:00 15.6 C 9.04 g/m*3 15.6 C 8.1 km/h
497 02-04-2019 17:20:00 15.7 C 9.1 g/m*3 15.7 C 3.2 km/h
498 02-04-2019 17:25:00 16 C 8.86 g/m*3 16 C 9.7 km/h
499 02-04-2019 17:30:00 16.2 C 8.96 g/m*3 16.2 C 11.3 km/h
500 02-04-2019 17:35:00 16.3 C 9.02 g/m*3 16.3 C 4.8 km/h
Sensor: Nr:Datum:Temp:Abs-Feuchte:Windchill:Wind:
Aussen-T/F 501 02-04-2019 17:40:00 16.5 C 8.85 g/m*3 16.5 C 9.7 km/h
502 02-04-2019 17:45:00 16.6 C 8.9 g/m*3 16.6 C 11.3 km/h
503 02-04-2019 17:50:00 16.6 C 8.9 g/m*3 16.6 C 9.7 km/h
504 02-04-2019 17:55:00 16.6 C 8.76 g/m*3 16.6 C 11.3 km/h
505 02-04-2019 18:00:00 16.4 C 8.65 g/m*3 16.4 C 11.3 km/h
506 02-04-2019 18:05:00 16.3 C 8.74 g/m*3 16.3 C 6.4 km/h
507 02-04-2019 18:10:00 16.3 C 8.88 g/m*3 16.3 C 6.4 km/h
508 02-04-2019 18:15:00 16.2 C 8.83 g/m*3 16.2 C 6.4 km/h
509 02-04-2019 18:20:00 16.1 C 8.64 g/m*3 16.1 C 8.1 km/h
510 02-04-2019 18:25:00 16.1 C 8.77 g/m*3 16.1 C 8.1 km/h
511 02-04-2019 18:30:00 16 C 8.58 g/m*3 16 C 8.1 km/h
512 02-04-2019 18:35:00 16 C 8.72 g/m*3 16 C 1.6 km/h
513 02-04-2019 18:40:00 15.9 C 8.67 g/m*3 15.9 C 9.7 km/h
514 02-04-2019 18:45:00 15.9 C 8.67 g/m*3 15.9 C 3.2 km/h
515 02-04-2019 18:50:00 15.9 C 8.67 g/m*3 15.9 C 3.2 km/h
516 02-04-2019 18:55:00 15.9 C 8.67 g/m*3 15.9 C 8.1 km/h
517 02-04-2019 19:00:00 15.9 C 8.8 g/m*3 15.9 C 3.2 km/h
518 02-04-2019 19:05:00 15.9 C 8.53 g/m*3 15.9 C 8.1 km/h
519 02-04-2019 19:10:00 15.8 C 8.62 g/m*3 15.8 C 4.8 km/h
520 02-04-2019 19:15:00 15.7 C 8.7 g/m*3 15.7 C 4.8 km/h
521 02-04-2019 19:20:00 15.6 C 8.78 g/m*3 15.6 C 1.6 km/h
522 02-04-2019 19:25:00 15.5 C 8.72 g/m*3 15.5 C 4.8 km/h
523 02-04-2019 19:30:00 15.3 C 8.62 g/m*3 15.3 C 3.2 km/h
524 02-04-2019 19:35:00 15.2 C 8.57 g/m*3 15.2 C 3.2 km/h
525 02-04-2019 19:40:00 15.1 C 8.64 g/m*3 15.1 C 1.6 km/h
Sensor: Nr:Datum:Temp:Abs-Feuchte:Windchill:Wind:
Aussen-T/F 526 02-04-2019 19:45:00 14.9 C 8.67 g/m*3 14.9 C 6.4 km/h
527 02-04-2019 19:50:00 14.8 C 8.61 g/m*3 14.8 C 4.8 km/h
528 02-04-2019 19:55:00 14.6 C 8.51 g/m*3 14.6 C 1.6 km/h
529 02-04-2019 20:00:00 14.5 C 8.58 g/m*3 14.5 C 0 km/h
530 02-04-2019 20:05:00 14.4 C 8.65 g/m*3 14.4 C 0 km/h
531 02-04-2019 20:10:00 14.3 C 8.6 g/m*3 14.3 C 6.4 km/h
532 02-04-2019 20:15:00 14.3 C 8.72 g/m*3 14.3 C 9.7 km/h
533 02-04-2019 20:20:00 14.2 C 8.91 g/m*3 14.2 C 6.4 km/h
534 02-04-2019 20:25:00 14.1 C 8.74 g/m*3 14.1 C 4.8 km/h
535 02-04-2019 20:30:00 13.9 C 8.51 g/m*3 13.9 C 8.1 km/h
536 02-04-2019 20:35:00 13.8 C 8.58 g/m*3 13.8 C 8.1 km/h
537 02-04-2019 20:40:00 13.8 C 8.58 g/m*3 13.8 C 4.8 km/h
538 02-04-2019 20:45:00 13.7 C 8.53 g/m*3 13.7 C 9.7 km/h
539 02-04-2019 20:50:00 13.7 C 8.41 g/m*3 13.7 C 12.9 km/h
540 02-04-2019 20:55:00 13.7 C 8.29 g/m*3 13.7 C 14.5 km/h
541 02-04-2019 21:00:00 13.6 C 8.12 g/m*3 13.6 C 8.1 km/h
542 02-04-2019 21:05:00 13.6 C 8.24 g/m*3 13.6 C 3.2 km/h
543 02-04-2019 21:10:00 13.5 C 8.07 g/m*3 13.5 C 9.7 km/h
544 02-04-2019 21:15:00 13.5 C 8.3 g/m*3 13.5 C 8.1 km/h
545 02-04-2019 21:20:00 13.5 C 8.07 g/m*3 13.5 C 6.4 km/h
546 02-04-2019 21:25:00 13.6 C 8.24 g/m*3 13.6 C 4.8 km/h
547 02-04-2019 21:30:00 13.5 C 8.07 g/m*3 13.5 C 14.5 km/h
548 02-04-2019 21:35:00 13.5 C 8.07 g/m*3 13.5 C 6.4 km/h
549 02-04-2019 21:40:00 13.5 C 8.07 g/m*3 13.5 C 11.3 km/h
550 02-04-2019 21:45:00 13.5 C 8.07 g/m*3 13.5 C 6.4 km/h
Sensor: Nr:Datum:Temp:Abs-Feuchte:Windchill:Wind:
Aussen-T/F 551 02-04-2019 21:50:00 13.4 C 8.02 g/m*3 13.4 C 12.9 km/h
552 02-04-2019 21:55:00 13.4 C 8.14 g/m*3 13.4 C 8.1 km/h
553 02-04-2019 22:00:00 13.3 C 8.2 g/m*3 13.3 C 3.2 km/h
554 02-04-2019 22:05:00 13.2 C 8.15 g/m*3 13.2 C 9.7 km/h
555 02-04-2019 22:10:00 13.1 C 7.99 g/m*3 13.1 C 17.7 km/h
556 02-04-2019 22:15:00 12.9 C 7.78 g/m*3 12.9 C 11.3 km/h
557 02-04-2019 22:20:00 12.8 C 7.73 g/m*3 12.8 C 9.7 km/h
558 02-04-2019 22:25:00 12.7 C 7.68 g/m*3 12.7 C 14.5 km/h
559 02-04-2019 22:30:00 12.7 C 7.68 g/m*3 12.7 C 1.6 km/h
560 02-04-2019 22:35:00 12.6 C 7.74 g/m*3 12.6 C 0 km/h
561 02-04-2019 22:40:00 12.4 C 7.65 g/m*3 12.4 C 4.8 km/h
562 02-04-2019 22:45:00 12.2 C 7.66 g/m*3 12.2 C 1.6 km/h
563 02-04-2019 22:50:00 12.1 C 7.61 g/m*3 12.1 C 1.6 km/h
564 02-04-2019 22:55:00 12 C 7.67 g/m*3 12 C 6.4 km/h
565 02-04-2019 23:00:00 11.9 C 7.63 g/m*3 11.9 C 1.6 km/h
566 02-04-2019 23:05:00 11.8 C 7.68 g/m*3 11.8 C 1.6 km/h
567 02-04-2019 23:10:00 11.7 C 7.53 g/m*3 11.7 C 0 km/h
568 02-04-2019 23:15:00 11.6 C 7.59 g/m*3 11.6 C 4.8 km/h
569 02-04-2019 23:20:00 11.6 C 7.59 g/m*3 11.6 C 0 km/h
570 02-04-2019 23:25:00 11.5 C 7.64 g/m*3 11.5 C 0 km/h
571 02-04-2019 23:30:00 11.4 C 7.6 g/m*3 11.4 C 0 km/h
572 02-04-2019 23:35:00 11.3 C 7.55 g/m*3 11.3 C 0 km/h
573 02-04-2019 23:40:00 11.2 C 7.6 g/m*3 11.2 C 0 km/h
574 02-04-2019 23:45:00 11.1 C 7.66 g/m*3 11.1 C 0 km/h
575 02-04-2019 23:50:00 10.9 C 7.56 g/m*3 10.9 C 0 km/h
Sensor: Nr:Datum:Temp:Abs-Feuchte:Windchill:Wind:
Aussen-T/F 576 02-04-2019 23:55:00 10.8 C 7.61 g/m*3 10.8 C 0 km/h
577 03-04-2019 00:00:00 10.7 C 7.66 g/m*3 10.7 C 0 km/h
578 03-04-2019 00:05:00 10.6 C 7.61 g/m*3 10.6 C 0 km/h
579 03-04-2019 00:10:00 10.6 C 7.71 g/m*3 10.6 C 0 km/h
580 03-04-2019 00:15:00 10.4 C 7.61 g/m*3 10.4 C 0 km/h
581 03-04-2019 00:20:00 10.4 C 7.52 g/m*3 10.4 C 3.2 km/h
582 03-04-2019 00:25:00 10.4 C 7.61 g/m*3 10.4 C 3.2 km/h
583 03-04-2019 00:30:00 10.4 C 7.61 g/m*3 10.4 C 1.6 km/h
584 03-04-2019 00:35:00 10.4 C 7.61 g/m*3 10.4 C 0 km/h
585 03-04-2019 00:40:00 10.5 C 7.66 g/m*3 10.5 C 0 km/h
586 03-04-2019 00:45:00 10.5 C 7.66 g/m*3 10.5 C 0 km/h
587 03-04-2019 00:50:00 10.6 C 7.61 g/m*3 10.6 C 0 km/h
588 03-04-2019 00:55:00 10.6 C 7.81 g/m*3 10.6 C 0 km/h
589 03-04-2019 01:00:00 10.6 C 7.71 g/m*3 10.6 C 0 km/h
590 03-04-2019 01:05:00 10.6 C 7.71 g/m*3 10.6 C 0 km/h
591 03-04-2019 01:10:00 10.5 C 7.66 g/m*3 10.5 C 0 km/h
592 03-04-2019 01:15:00 10.4 C 7.61 g/m*3 10.4 C 0 km/h
593 03-04-2019 01:20:00 10.4 C 7.61 g/m*3 10.4 C 0 km/h
594 03-04-2019 01:25:00 10.3 C 7.57 g/m*3 10.3 C 0 km/h
595 03-04-2019 01:30:00 10.2 C 7.61 g/m*3 10.2 C 0 km/h
596 03-04-2019 01:35:00 10.2 C 7.61 g/m*3 10.2 C 0 km/h
597 03-04-2019 01:40:00 10.2 C 7.61 g/m*3 10.2 C 0 km/h
598 03-04-2019 01:45:00 10.1 C 7.56 g/m*3 10.1 C 0 km/h
599 03-04-2019 01:50:00 9.9 C 7.56 g/m*3 9.9 C 0 km/h
600 03-04-2019 01:55:00 9.9 C 7.56 g/m*3 9.9 C 0 km/h
Sensor: Nr:Datum:Temp:Abs-Feuchte:Windchill:Wind:
Aussen-T/F 601 03-04-2019 02:00:00 9.8 C 7.61 g/m*3 9.8 C 0 km/h
602 03-04-2019 02:05:00 9.8 C 7.52 g/m*3 9.8 C 0 km/h
603 03-04-2019 02:10:00 9.9 C 7.56 g/m*3 9.9 C 0 km/h
604 03-04-2019 02:15:00 9.9 C 7.56 g/m*3 9.9 C 0 km/h
605 03-04-2019 02:20:00 10 C 7.61 g/m*3 10 C 0 km/h
606 03-04-2019 02:25:00 10 C 7.61 g/m*3 10 C 0 km/h
607 03-04-2019 02:30:00 10 C 7.71 g/m*3 10 C 0 km/h
608 03-04-2019 02:35:00 10.1 C 7.75 g/m*3 10.1 C 0 km/h
609 03-04-2019 02:40:00 10 C 7.71 g/m*3 10 C 0 km/h
610 03-04-2019 02:45:00 9.9 C 7.56 g/m*3 9.9 C 0 km/h
611 03-04-2019 02:50:00 9.8 C 7.61 g/m*3 9.8 C 0 km/h
612 03-04-2019 02:55:00 9.7 C 7.56 g/m*3 9.7 C 0 km/h
613 03-04-2019 03:00:00 9.6 C 7.51 g/m*3 9.6 C 0 km/h
614 03-04-2019 03:05:00 9.4 C 7.51 g/m*3 9.4 C 0 km/h
615 03-04-2019 03:10:00 9.2 C 7.41 g/m*3 9.2 C 0 km/h
616 03-04-2019 03:15:00 9.1 C 7.45 g/m*3 9.1 C 0 km/h
617 03-04-2019 03:20:00 8.9 C 7.36 g/m*3 8.9 C 0 km/h
618 03-04-2019 03:25:00 8.8 C 7.31 g/m*3 8.8 C 0 km/h
619 03-04-2019 03:30:00 8.7 C 7.35 g/m*3 8.7 C 0 km/h
620 03-04-2019 03:35:00 8.6 C 7.3 g/m*3 8.6 C 0 km/h
621 03-04-2019 03:40:00 8.6 C 7.39 g/m*3 8.6 C 0 km/h
622 03-04-2019 03:45:00 8.7 C 7.52 g/m*3 8.7 C 0 km/h
623 03-04-2019 03:50:00 8.7 C 7.52 g/m*3 8.7 C 0 km/h
624 03-04-2019 03:55:00 8.7 C 7.52 g/m*3 8.7 C 0 km/h
625 03-04-2019 04:00:00 8.8 C 7.57 g/m*3 8.8 C 0 km/h
Sensor: Nr:Datum:Temp:Abs-Feuchte:Windchill:Wind:
Aussen-T/F 626 03-04-2019 04:05:00 8.8 C 7.49 g/m*3 8.8 C 0 km/h
627 03-04-2019 04:10:00 8.9 C 7.53 g/m*3 8.9 C 0 km/h
628 03-04-2019 04:15:00 8.9 C 7.53 g/m*3 8.9 C 0 km/h
629 03-04-2019 04:20:00 9 C 7.58 g/m*3 9 C 0 km/h
630 03-04-2019 04:25:00 9 C 7.58 g/m*3 9 C 0 km/h
631 03-04-2019 04:30:00 8.9 C 7.53 g/m*3 8.9 C 0 km/h
632 03-04-2019 04:35:00 8.9 C 7.62 g/m*3 8.9 C 0 km/h
633 03-04-2019 04:40:00 8.9 C 7.53 g/m*3 8.9 C 0 km/h
634 03-04-2019 04:45:00 8.9 C 7.53 g/m*3 8.9 C 0 km/h
635 03-04-2019 04:50:00 8.8 C 7.49 g/m*3 8.8 C 0 km/h
636 03-04-2019 04:55:00 8.7 C 7.44 g/m*3 8.7 C 0 km/h
637 03-04-2019 05:00:00 8.7 C 7.44 g/m*3 8.7 C 0 km/h
638 03-04-2019 05:05:00 8.7 C 7.44 g/m*3 8.7 C 0 km/h
639 03-04-2019 05:10:00 8.7 C 7.52 g/m*3 8.7 C 0 km/h
640 03-04-2019 05:15:00 8.7 C 7.52 g/m*3 8.7 C 0 km/h
641 03-04-2019 05:20:00 8.7 C 7.52 g/m*3 8.7 C 0 km/h
642 03-04-2019 05:25:00 8.7 C 7.52 g/m*3 8.7 C 0 km/h
643 03-04-2019 05:30:00 8.7 C 7.52 g/m*3 8.7 C 0 km/h
644 03-04-2019 05:35:00 8.6 C 7.48 g/m*3 8.6 C 0 km/h
645 03-04-2019 05:40:00 8.6 C 7.39 g/m*3 8.6 C 0 km/h
646 03-04-2019 05:45:00 8.5 C 7.34 g/m*3 8.5 C 0 km/h
647 03-04-2019 05:50:00 8.3 C 7.25 g/m*3 8.3 C 0 km/h
648 03-04-2019 05:55:00 8.3 C 7.33 g/m*3 8.3 C 0 km/h
649 03-04-2019 06:00:00 8.1 C 7.16 g/m*3 8.1 C 0 km/h
650 03-04-2019 06:05:00 8.1 C 7.24 g/m*3 8.1 C 0 km/h
Sensor: Nr:Datum:Temp:Abs-Feuchte:Windchill:Wind:
Aussen-T/F 651 03-04-2019 06:10:00 7.9 C 7.15 g/m*3 7.9 C 0 km/h
652 03-04-2019 06:15:00 7.9 C 7.23 g/m*3 7.9 C 0 km/h
653 03-04-2019 06:20:00 7.9 C 7.31 g/m*3 7.9 C 0 km/h
654 03-04-2019 06:25:00 7.9 C 7.31 g/m*3 7.9 C 0 km/h
655 03-04-2019 06:30:00 8 C 7.36 g/m*3 8 C 0 km/h
656 03-04-2019 06:35:00 8.1 C 7.41 g/m*3 8.1 C 4.8 km/h
657 03-04-2019 06:40:00 8.2 C 7.37 g/m*3 8.2 C 1.6 km/h
658 03-04-2019 06:45:00 8.2 C 7.37 g/m*3 8.2 C 0 km/h
659 03-04-2019 06:50:00 8.3 C 7.42 g/m*3 8.3 C 0 km/h
660 03-04-2019 06:55:00 8.3 C 7.33 g/m*3 8.3 C 0 km/h
661 03-04-2019 07:00:00 8.4 C 7.3 g/m*3 8.4 C 1.6 km/h
662 03-04-2019 07:05:00 8.6 C 7.39 g/m*3 8.6 C 1.6 km/h
663 03-04-2019 07:10:00 8.6 C 7.3 g/m*3 8.6 C 0 km/h
664 03-04-2019 07:15:00 8.6 C 7.3 g/m*3 8.6 C 0 km/h
665 03-04-2019 07:20:00 8.6 C 7.22 g/m*3 8.6 C 1.6 km/h
666 03-04-2019 07:25:00 8.6 C 7.22 g/m*3 8.6 C 1.6 km/h
667 03-04-2019 07:30:00 8.6 C 7.22 g/m*3 8.6 C 0 km/h
668 03-04-2019 07:35:00 8.7 C 7.35 g/m*3 8.7 C 0 km/h
669 03-04-2019 07:40:00 8.7 C 7.35 g/m*3 8.7 C 0 km/h
670 03-04-2019 07:45:00 8.7 C 7.35 g/m*3 8.7 C 0 km/h
671 03-04-2019 07:50:00 8.8 C 7.4 g/m*3 8.8 C 0 km/h
672 03-04-2019 07:55:00 8.8 C 7.4 g/m*3 8.8 C 0 km/h
673 03-04-2019 08:00:00 8.8 C 7.4 g/m*3 8.8 C 0 km/h
674 03-04-2019 08:05:00 8.8 C 7.4 g/m*3 8.8 C 0 km/h
675 03-04-2019 08:10:00 8.9 C 7.45 g/m*3 8.9 C 0 km/h
Sensor: Nr:Datum:Temp:Abs-Feuchte:Windchill:Wind:
Aussen-T/F 676 03-04-2019 08:15:00 8.9 C 7.45 g/m*3 8.9 C 0 km/h
677 03-04-2019 08:20:00 8.9 C 7.45 g/m*3 8.9 C 0 km/h
678 03-04-2019 08:25:00 8.9 C 7.45 g/m*3 8.9 C 0 km/h
679 03-04-2019 08:30:00 8.9 C 7.53 g/m*3 8.9 C 0 km/h
680 03-04-2019 08:35:00 8.9 C 7.53 g/m*3 7.37 C 9.7 km/h
681 03-04-2019 08:40:00 9 C 7.67 g/m*3 7.49 C 9.7 km/h
682 03-04-2019 08:45:00 8.9 C 7.71 g/m*3 8.1 C 6.4 km/h
683 03-04-2019 08:50:00 8.8 C 7.66 g/m*3 7.98 C 6.4 km/h
684 03-04-2019 08:55:00 8.7 C 7.61 g/m*3 7.46 C 8.1 km/h
685 03-04-2019 09:00:00 8.4 C 7.55 g/m*3 7.52 C 6.4 km/h
686 03-04-2019 09:05:00 8.3 C 7.59 g/m*3 6.37 C 11.3 km/h
687 03-04-2019 09:10:00 8.1 C 7.49 g/m*3 5.43 C 16.1 km/h
688 03-04-2019 09:15:00 7.9 C 7.39 g/m*3 6.18 C 9.7 km/h
689 03-04-2019 09:20:00 7.7 C 7.3 g/m*3 4.55 C 19.3 km/h
690 03-04-2019 09:25:00 7.6 C 7.25 g/m*3 6.16 C 8.1 km/h
691 03-04-2019 09:30:00 7.5 C 7.28 g/m*3 6.05 C 8.1 km/h
692 03-04-2019 09:35:00 7.5 C 7.28 g/m*3 6.05 C 8.1 km/h
693 03-04-2019 09:40:00 7.4 C 7.24 g/m*3 7.4 C 4.8 km/h
694 03-04-2019 09:45:00 7.3 C 7.19 g/m*3 5.81 C 8.1 km/h
695 03-04-2019 09:50:00 7.2 C 7.14 g/m*3 6.13 C 6.4 km/h
696 03-04-2019 09:55:00 7.1 C 7.18 g/m*3 6.02 C 6.4 km/h
697 03-04-2019 10:00:00 7.1 C 7.1 g/m*3 4.65 C 12.9 km/h
698 03-04-2019 10:05:00 7.1 C 7.18 g/m*3 7.1 C 0 km/h
699 03-04-2019 10:10:00 7.1 C 7.18 g/m*3 7.1 C 0 km/h
700 03-04-2019 10:15:00 7.2 C 7.22 g/m*3 7.2 C 3.2 km/h
Sensor: Nr:Datum:Temp:Abs-Feuchte:Windchill:Wind:
Aussen-T/F 701 03-04-2019 10:20:00 7.1 C 7.18 g/m*3 7.1 C 4.8 km/h
702 03-04-2019 10:25:00 7 C 7.05 g/m*3 5.9 C 6.4 km/h
703 03-04-2019 10:30:00 6.9 C 7.01 g/m*3 6.9 C 0 km/h
704 03-04-2019 10:35:00 7 C 7.13 g/m*3 7 C 1.6 km/h
705 03-04-2019 10:40:00 7 C 7.13 g/m*3 7 C 0 km/h
706 03-04-2019 10:45:00 7 C 7.05 g/m*3 7 C 3.2 km/h
707 03-04-2019 10:50:00 6.9 C 7.01 g/m*3 6.9 C 1.6 km/h
708 03-04-2019 10:55:00 6.9 C 7.08 g/m*3 6.9 C 0 km/h
709 03-04-2019 11:00:00 6.9 C 7.01 g/m*3 6.9 C 3.2 km/h
710 03-04-2019 11:05:00 7 C 7.13 g/m*3 7 C 1.6 km/h
711 03-04-2019 11:10:00 7.1 C 7.18 g/m*3 7.1 C 0 km/h
712 03-04-2019 11:15:00 7.2 C 7.22 g/m*3 7.2 C 1.6 km/h
713 03-04-2019 11:20:00 7.3 C 7.35 g/m*3 7.3 C 0 km/h
714 03-04-2019 11:25:00 7.4 C 7.4 g/m*3 7.4 C 0 km/h
715 03-04-2019 11:30:00 7.6 C 7.41 g/m*3 7.6 C 1.6 km/h
716 03-04-2019 11:35:00 7.6 C 7.41 g/m*3 7.6 C 0 km/h
717 03-04-2019 11:40:00 7.7 C 7.46 g/m*3 7.7 C 0 km/h
718 03-04-2019 11:45:00 7.8 C 7.51 g/m*3 7.8 C 3.2 km/h
719 03-04-2019 11:50:00 7.8 C 7.43 g/m*3 7.8 C 3.2 km/h
720 03-04-2019 11:55:00 7.9 C 7.47 g/m*3 7.9 C 0 km/h
721 03-04-2019 12:00:00 7.9 C 7.39 g/m*3 7.9 C 3.2 km/h
722 03-04-2019 12:05:00 7.9 C 7.39 g/m*3 7.9 C 1.6 km/h
723 03-04-2019 12:10:00 8.1 C 7.49 g/m*3 8.1 C 1.6 km/h
724 03-04-2019 12:15:00 8.2 C 7.54 g/m*3 6.87 C 8.1 km/h
725 03-04-2019 12:20:00 8.2 C 7.45 g/m*3 7.29 C 6.4 km/h
Sensor: Nr:Datum:Temp:Abs-Feuchte:Windchill:Wind:
Aussen-T/F 726 03-04-2019 12:25:00 8.2 C 7.54 g/m*3 8.2 C 1.6 km/h
727 03-04-2019 12:30:00 8.3 C 7.5 g/m*3 8.3 C 0 km/h
728 03-04-2019 12:35:00 8.4 C 7.55 g/m*3 8.4 C 1.6 km/h
729 03-04-2019 12:40:00 8.5 C 7.51 g/m*3 7.64 C 6.4 km/h
730 03-04-2019 12:45:00 8.6 C 7.56 g/m*3 8.6 C 3.2 km/h
731 03-04-2019 12:50:00 8.8 C 7.57 g/m*3 8.8 C 4.8 km/h
732 03-04-2019 12:55:00 8.9 C 7.62 g/m*3 8.9 C 4.8 km/h
733 03-04-2019 13:00:00 9.1 C 7.72 g/m*3 9.1 C 3.2 km/h
734 03-04-2019 13:05:00 9.3 C 7.73 g/m*3 9.3 C 4.8 km/h
735 03-04-2019 13:10:00 9.5 C 7.83 g/m*3 9.5 C 4.8 km/h
736 03-04-2019 13:15:00 9.6 C 7.69 g/m*3 9.6 C 3.2 km/h
737 03-04-2019 13:20:00 9.5 C 7.46 g/m*3 8.79 C 6.4 km/h
738 03-04-2019 13:25:00 9.6 C 7.6 g/m*3 9.6 C 3.2 km/h
739 03-04-2019 13:30:00 9.6 C 7.6 g/m*3 9.6 C 4.8 km/h
740 03-04-2019 13:35:00 9.6 C 7.51 g/m*3 9.6 C 4.8 km/h
741 03-04-2019 13:40:00 9.5 C 7.37 g/m*3 9.5 C 1.6 km/h
742 03-04-2019 13:45:00 9.5 C 7.37 g/m*3 9.5 C 4.8 km/h
743 03-04-2019 13:50:00 9.5 C 7.46 g/m*3 9.5 C 1.6 km/h
744 03-04-2019 13:55:00 9.4 C 7.33 g/m*3 9.4 C 0 km/h
745 03-04-2019 14:00:00 9.4 C 7.51 g/m*3 9.4 C 3.2 km/h
746 03-04-2019 14:05:00 9.4 C 7.42 g/m*3 9.4 C 3.2 km/h
747 03-04-2019 14:10:00 9.4 C 7.33 g/m*3 8.68 C 6.4 km/h
748 03-04-2019 14:15:00 9.3 C 7.28 g/m*3 8.56 C 6.4 km/h
749 03-04-2019 14:20:00 9.3 C 7.28 g/m*3 9.3 C 4.8 km/h
750 03-04-2019 14:25:00 9.3 C 7.28 g/m*3 9.3 C 3.2 km/h
Sensor: Nr:Datum:Temp:Abs-Feuchte:Windchill:Wind:
Aussen-T/F 751 03-04-2019 14:30:00 9.4 C 7.42 g/m*3 8.28 C 8.1 km/h
752 03-04-2019 14:35:00 9.4 C 7.33 g/m*3 8.68 C 6.4 km/h
753 03-04-2019 14:40:00 9.4 C 7.33 g/m*3 9.4 C 1.6 km/h
754 03-04-2019 14:45:00 9.6 C 7.51 g/m*3 9.6 C 1.6 km/h
755 03-04-2019 14:50:00 9.6 C 7.33 g/m*3 9.6 C 4.8 km/h
756 03-04-2019 14:55:00 9.7 C 7.47 g/m*3 9.7 C 4.8 km/h
757 03-04-2019 15:00:00 9.8 C 7.42 g/m*3 8.45 C 9.7 km/h
758 03-04-2019 15:05:00 9.8 C 7.52 g/m*3 8.75 C 8.1 km/h
759 03-04-2019 15:10:00 9.9 C 7.56 g/m*3 9.9 C 3.2 km/h
760 03-04-2019 15:15:00 10.1 C 7.66 g/m*3 9.48 C 6.4 km/h
761 03-04-2019 15:20:00 10.1 C 7.66 g/m*3 10.1 C 3.2 km/h
762 03-04-2019 15:25:00 10.2 C 7.61 g/m*3 9.6 C 6.4 km/h
763 03-04-2019 15:30:00 10.2 C 7.52 g/m*3 10.2 C 4.8 km/h
764 03-04-2019 15:35:00 10.1 C 7.47 g/m*3 8.54 C 11.3 km/h
765 03-04-2019 15:40:00 10.1 C 7.47 g/m*3 8.8 C 9.7 km/h
766 03-04-2019 15:45:00 10.1 C 7.47 g/m*3 9.48 C 6.4 km/h
767 03-04-2019 15:50:00 10.1 C 7.47 g/m*3 9.48 C 6.4 km/h
768 03-04-2019 15:55:00 10.1 C 7.38 g/m*3 10.1 C 4.8 km/h
769 03-04-2019 16:00:00 10.1 C 7.47 g/m*3 10.1 C 4.8 km/h
770 03-04-2019 16:05:00 10.2 C 7.52 g/m*3 10.2 C 3.2 km/h
771 03-04-2019 16:10:00 10.2 C 7.52 g/m*3 10.2 C 4.8 km/h
772 03-04-2019 16:15:00 10.2 C 7.42 g/m*3 10.2 C 4.8 km/h
773 03-04-2019 16:20:00 10.2 C 7.52 g/m*3 10.2 C 3.2 km/h
774 03-04-2019 16:25:00 10.3 C 7.57 g/m*3 10.3 C 3.2 km/h
775 03-04-2019 16:30:00 10.3 C 7.57 g/m*3 10.3 C 1.6 km/h
Sensor: Nr:Datum:Temp:Abs-Feuchte:Windchill:Wind:
Aussen-T/F 776 03-04-2019 16:35:00 10.3 C 7.47 g/m*3 10.3 C 4.8 km/h
777 03-04-2019 16:40:00 10.3 C 7.37 g/m*3 9.72 C 6.4 km/h
778 03-04-2019 16:45:00 10.2 C 7.52 g/m*3 10.2 C 4.8 km/h
779 03-04-2019 16:50:00 10.1 C 7.38 g/m*3 9.1 C 8.1 km/h
780 03-04-2019 16:55:00 10 C 7.33 g/m*3 9.37 C 6.4 km/h
781 03-04-2019 17:00:00 9.9 C 7.38 g/m*3 9.25 C 6.4 km/h
782 03-04-2019 17:05:00 9.9 C 7.38 g/m*3 9.9 C 1.6 km/h
783 03-04-2019 17:10:00 9.8 C 7.42 g/m*3 9.8 C 4.8 km/h
784 03-04-2019 17:15:00 9.7 C 7.47 g/m*3 9.7 C 3.2 km/h
785 03-04-2019 17:20:00 9.6 C 7.33 g/m*3 9.6 C 3.2 km/h
786 03-04-2019 17:25:00 9.6 C 7.42 g/m*3 9.6 C 3.2 km/h
787 03-04-2019 17:30:00 9.5 C 7.46 g/m*3 9.5 C 0 km/h
788 03-04-2019 17:35:00 9.4 C 7.51 g/m*3 8.68 C 6.4 km/h
789 03-04-2019 17:40:00 9.3 C 7.55 g/m*3 9.3 C 4.8 km/h
790 03-04-2019 17:45:00 9.1 C 7.54 g/m*3 9.1 C 1.6 km/h
791 03-04-2019 17:50:00 8.9 C 7.53 g/m*3 8.9 C 0 km/h
792 03-04-2019 17:55:00 8.8 C 7.57 g/m*3 8.8 C 0 km/h
793 03-04-2019 18:00:00 8.7 C 7.61 g/m*3 8.7 C 0 km/h
794 03-04-2019 18:05:00 8.6 C 7.65 g/m*3 8.6 C 0 km/h
795 03-04-2019 18:10:00 8.4 C 7.55 g/m*3 8.4 C 1.6 km/h
796 03-04-2019 18:15:00 8.3 C 7.59 g/m*3 8.3 C 1.6 km/h
797 03-04-2019 18:20:00 8.1 C 7.41 g/m*3 8.1 C 3.2 km/h
798 03-04-2019 18:25:00 7.9 C 7.39 g/m*3 7.9 C 3.2 km/h
799 03-04-2019 18:30:00 7.8 C 7.35 g/m*3 7.8 C 1.6 km/h
800 03-04-2019 18:35:00 7.7 C 7.38 g/m*3 7.7 C 0 km/h
Sensor: Nr:Datum:Temp:Abs-Feuchte:Windchill:Wind:
Aussen-T/F 801 03-04-2019 18:40:00 7.6 C 7.33 g/m*3 7.6 C 3.2 km/h
802 03-04-2019 18:45:00 7.4 C 7.24 g/m*3 7.4 C 1.6 km/h
803 03-04-2019 18:50:00 7.4 C 7.24 g/m*3 7.4 C 1.6 km/h
804 03-04-2019 18:55:00 7.3 C 7.27 g/m*3 7.3 C 1.6 km/h
805 03-04-2019 19:00:00 7.2 C 7.22 g/m*3 7.2 C 1.6 km/h
806 03-04-2019 19:05:00 7.2 C 7.22 g/m*3 7.2 C 1.6 km/h
807 03-04-2019 19:10:00 7.1 C 7.18 g/m*3 7.1 C 0 km/h
808 03-04-2019 19:15:00 7.1 C 7.25 g/m*3 7.1 C 0 km/h
809 03-04-2019 19:20:00 7.1 C 7.25 g/m*3 7.1 C 0 km/h
810 03-04-2019 19:25:00 7.1 C 7.25 g/m*3 7.1 C 0 km/h
811 03-04-2019 19:30:00 7 C 7.21 g/m*3 7 C 0 km/h
812 03-04-2019 19:35:00 7 C 7.21 g/m*3 7 C 0 km/h
813 03-04-2019 19:40:00 6.9 C 7.16 g/m*3 6.9 C 0 km/h
814 03-04-2019 19:45:00 6.9 C 7.16 g/m*3 6.9 C 0 km/h
815 03-04-2019 19:50:00 6.9 C 7.16 g/m*3 6.9 C 0 km/h
816 03-04-2019 19:55:00 6.8 C 7.11 g/m*3 6.8 C 0 km/h
817 03-04-2019 20:00:00 6.7 C 7.07 g/m*3 6.7 C 0 km/h
818 03-04-2019 20:05:00 6.7 C 7.07 g/m*3 6.7 C 0 km/h
819 03-04-2019 20:10:00 6.6 C 7.02 g/m*3 6.6 C 0 km/h
820 03-04-2019 20:15:00 6.5 C 6.97 g/m*3 6.5 C 0 km/h
821 03-04-2019 20:20:00 6.5 C 6.97 g/m*3 6.5 C 0 km/h
822 03-04-2019 20:25:00 6.4 C 7 g/m*3 6.4 C 0 km/h
823 03-04-2019 20:30:00 6.4 C 7 g/m*3 6.4 C 0 km/h
824 03-04-2019 20:35:00 6.4 C 7 g/m*3 6.4 C 0 km/h
825 03-04-2019 20:40:00 6.3 C 6.96 g/m*3 6.3 C 0 km/h
Sensor: Nr:Datum:Temp:Abs-Feuchte:Windchill:Wind:
Aussen-T/F 826 03-04-2019 20:45:00 6.3 C 6.96 g/m*3 6.3 C 0 km/h
827 03-04-2019 20:50:00 6.3 C 6.96 g/m*3 6.3 C 0 km/h
828 03-04-2019 20:55:00 6.3 C 6.96 g/m*3 6.3 C 0 km/h
829 03-04-2019 21:00:00 6.3 C 6.96 g/m*3 6.3 C 0 km/h
830 03-04-2019 21:05:00 6.3 C 6.96 g/m*3 6.3 C 0 km/h
831 03-04-2019 21:10:00 6.3 C 6.96 g/m*3 6.3 C 0 km/h
832 03-04-2019 21:15:00 6.3 C 6.96 g/m*3 6.3 C 0 km/h
833 03-04-2019 21:20:00 6.2 C 6.99 g/m*3 6.2 C 0 km/h
834 03-04-2019 21:25:00 6.2 C 6.99 g/m*3 6.2 C 0 km/h
835 03-04-2019 21:30:00 6.2 C 6.99 g/m*3 6.2 C 0 km/h
836 03-04-2019 21:35:00 6.2 C 6.99 g/m*3 6.2 C 0 km/h
837 03-04-2019 21:40:00 6.2 C 6.99 g/m*3 6.2 C 0 km/h
838 03-04-2019 21:45:00 6.2 C 6.99 g/m*3 6.2 C 0 km/h
839 03-04-2019 21:50:00 6.2 C 6.99 g/m*3 6.2 C 0 km/h
840 03-04-2019 21:55:00 6.2 C 6.99 g/m*3 6.2 C 0 km/h
841 03-04-2019 22:00:00 6.1 C 6.94 g/m*3 6.1 C 0 km/h
842 03-04-2019 22:05:00 6.1 C 6.94 g/m*3 6.1 C 0 km/h
843 03-04-2019 22:10:00 6 C 6.9 g/m*3 6 C 0 km/h
844 03-04-2019 22:15:00 6 C 6.9 g/m*3 6 C 0 km/h
845 03-04-2019 22:20:00 5.9 C 6.85 g/m*3 5.9 C 0 km/h
846 03-04-2019 22:25:00 5.9 C 6.85 g/m*3 5.9 C 0 km/h
847 03-04-2019 22:30:00 5.8 C 6.81 g/m*3 5.8 C 0 km/h
848 03-04-2019 22:35:00 5.8 C 6.81 g/m*3 5.8 C 0 km/h
849 03-04-2019 22:40:00 5.8 C 6.81 g/m*3 5.8 C 1.6 km/h
850 03-04-2019 22:45:00 5.7 C 6.76 g/m*3 5.7 C 0 km/h
Sensor: Nr:Datum:Temp:Abs-Feuchte:Windchill:Wind:
Aussen-T/F 851 03-04-2019 22:50:00 5.7 C 6.76 g/m*3 5.7 C 0 km/h
852 03-04-2019 22:55:00 5.7 C 6.76 g/m*3 5.7 C 0 km/h
853 03-04-2019 23:00:00 5.7 C 6.76 g/m*3 5.7 C 1.6 km/h
854 03-04-2019 23:05:00 5.6 C 6.72 g/m*3 5.6 C 0 km/h
855 03-04-2019 23:10:00 5.7 C 6.76 g/m*3 5.7 C 0 km/h
856 03-04-2019 23:15:00 5.7 C 6.76 g/m*3 5.7 C 0 km/h
857 03-04-2019 23:20:00 5.7 C 6.76 g/m*3 5.7 C 0 km/h
858 03-04-2019 23:25:00 5.6 C 6.72 g/m*3 5.6 C 0 km/h
859 03-04-2019 23:30:00 5.6 C 6.72 g/m*3 5.6 C 0 km/h
860 03-04-2019 23:35:00 5.6 C 6.72 g/m*3 5.6 C 0 km/h
861 03-04-2019 23:40:00 5.6 C 6.72 g/m*3 5.6 C 0 km/h
862 03-04-2019 23:45:00 5.6 C 6.72 g/m*3 5.6 C 0 km/h
863 03-04-2019 23:50:00 5.6 C 6.72 g/m*3 5.6 C 0 km/h
864 03-04-2019 23:55:00 5.6 C 6.72 g/m*3 5.6 C 0 km/h

Legende:
   Min
   Max


Maximal/Minimal-Werte vom 01.04.2019 - 03.04.2019

Sensor Min Max Avg
Temp
(Aussen-T/F)
3 °C
01-04-2019  07:40:00
18.7 °C
01-04-2019  17:25:00
9.51 °C
Abs-Feuchte
(Aussen-T/F)
5.47 g/m*3
01-04-2019  07:40:00
9.75 g/m*3
02-04-2019  15:15:00
7.14 g/m*3
Windchill
(Aussen-T/F)
3 C
01-04-2019  07:40:00
18.7 C
01-04-2019  17:25:00
9.41 C

Die Daten stammen von einer Davis Vantage Pro 2 Wetter-Station und werden unter Linux mit der Software wview2wettercgi und aufbereitet. Alle Angaben erfolgen ohne Gewähr für ihre Vollständigkeit oder Richtigkeit.
Kontakt: Rainer Krienke krienke@uni-koblenz.de . Meine Webseiten an der Uni Koblenz oder privat.
Version: $Revision: 0.78 $